Weather observations for the past three days for
Imperial, Imperial Municipal Airport
Metric (Imperial)
Date Time (mdt) Wind (kph) Vis. (km) Weather Sky Cond. Temperature (ºC) Relative Humidity Wind Chill (°C) Heat Index (°C) Pressure Precipitation (cm)
Air Dwpt 6 hour altimeter (cm) sea level (mb) 1 hr 3 hr 6 hr
Max. Min.
02 18:53 SW 15 16.09 Fair CLR 22.2 -6.7 14% 76.07 1013.6
02 17:53 W 9 16.09 Fair CLR 23.3 -8.9 24.4 18.3 11% 76.12 1014.3
02 16:53 W 19 G 31 16.09 Fair CLR 23.9 -8.9 10% 24 76.15 1014.7
02 15:53 Vrbl 11 G 37 16.09 Fair CLR 23.3 -5 15% 76.2 1015.6
02 14:53 Calm 16.09 Fair CLR 21.7 -2.8 19% 76.3 1016.8
02 13:53 SW 13 16.09 Fair CLR 21.1 -2.2 21% 76.35 1017.4
02 12:53 S 15 16.09 Fair CLR 19.4 -1.7 24% 76.43 1018.9
02 11:53 SW 19 G 33 16.09 Fair CLR 18.3 0 18.3 -0.6 29% 76.53 1020.1
02 10:53 SW 20 G 33 16.09 Fair CLR 16.1 0.6 35% 76.58 1021.0
02 09:53 S 17 16.09 Fair CLR 13.9 1.1 42% 76.63 1021.5
02 08:53 S 13 16.09 Fair CLR 11.1 1.7 53% 76.66 1022.3
02 07:53 S 13 16.09 Fair CLR 7.8 0.6 61% 6 76.66 1022.5
02 06:53 Calm 16.09 Fair CLR 2.2 -1.1 79% 76.68 1022.7
02 05:53 Calm 16.09 Fair CLR -0.6 -2.8 4.4 -1.1 85% 76.66 1022.5
02 04:53 N 6 16.09 Fair CLR -0.6 -2.8 85% 76.66 1022.5
02 03:53 N 9 16.09 Fair CLR -0.6 -2.8 85% -3 76.66 1022.3
02 02:53 W 6 16.09 Fair CLR 1.1 -1.1 85% 76.66 1022.0
02 01:53 Calm 16.09 Fair CLR 3.9 -0.6 73% 76.66 1021.8
02 00:53 E 7 16.09 A Few Clouds FEW110 2.8 -1.7 73% 1 76.66 1022.3
01 23:53 Calm 16.09 Mostly Cloudy BKN100 3.9 -0.6 17.8 3.3 73% 76.63 1021.6
01 22:53 Calm 16.09 Partly Cloudy SCT110 6.1 -0.6 63% 76.61 1021.0
01 21:53 SE 6 16.09 Mostly Cloudy BKN110 6.7 -1.1 58% 76.56 1020.6
01 20:53 E 7 16.09 Fair CLR 7.2 -1.1 56% 6 76.48 1020.2
01 19:53 E 11 16.09 Fair CLR 10 -1.7 44% 9 76.4 1018.9
01 18:53 E 26 16.09 Overcast OVC110 15 -3.9 27% 76.35 1018.2
01 17:53 NE 20 16.09 Overcast OVC110 17.8 -6.1 18.9 16.1 19% 76.3 1017.5
01 16:53 N 26 16.09 Mostly Cloudy BKN110 17.8 -6.7 18% 76.3 1017.4
01 15:53 N 31 G 44 16.09 Partly Cloudy SCT100 18.9 -6.7 17% 76.3 1017.4
01 14:53 N 17 16.09 Partly Cloudy SCT100 18.3 -6.1 19% 76.35 1018.0
01 13:53 NW 28 G 43 16.09 Fair CLR 17.8 -6.7 18% 76.38 1018.4
01 12:53 Calm 16.09 Fair CLR 16.7 -5 22% 76.4 1018.6
01 11:53 N 24 G 39 16.09 Fair CLR 16.7 -3.3 16.7 1.1 25% 76.43 1019.1
01 10:53 N 13 G 35 16.09 Fair CLR 15.6 -1.1 32% 76.45 1019.4
01 09:53 NW 13 16.09 A Few Clouds FEW085 13.3 1.1 44% 76.45 1019.5
01 08:53 NW 13 16.09 Fair CLR 9.4 1.1 56% 8 76.45 1019.9
01 07:53 NW 15 16.09 Fair CLR 6.1 1.1 71% 3 76.45 1020.1
01 06:53 NW 13 16.09 Fair CLR 2.2 0.6 89% -1 76.48 1020.2
01 05:53 W 11 16.09 Fair CLR 1.7 0 3.3 0.6 89% -1 76.4 1019.2
01 04:53 W 11 16.09 Fair CLR 1.7 0 89% -1 76.43 1019.5
01 03:53 W 11 16.09 Fair CLR 1.1 -1.7 82% -2 76.45 1019.9
01 02:53 SW 11 16.09 Fair CLR 1.7 -1.7 78% -1 76.48 1020.2
01 01:53 S 7 16.09 Fair CLR 1.7 -2.2 76% -0 76.53 1020.8
01 00:53 S 7 16.09 Fair CLR 2.8 -2.2 70% 1 76.58 1021.5
30 23:53 S 11 16.09 Fair CLR 2.8 -2.8 14.4 2.8 67% 0 76.61 1021.7
30 22:53 SE 7 16.09 Fair CLR 3.9 -2.8 62% 2 76.58 1021.5
30 21:53 E 7 16.09 Fair CLR 3.9 -2.8 62% 2 76.56 1021.5
30 20:53 NE 13 16.09 Fair CLR 6.1 -2.8 53% 4 76.5 1020.8
30 19:53 N 9 16.09 Fair CLR 8.3 -2.2 48% 7 76.43 1019.8
30 18:53 N 17 16.09 Overcast OVC100 12.8 -4.4 30% 76.4 1019.0
30 17:53 N 15 16.09 Overcast OVC095 13.9 -5 15 12.8 27% 76.4 1019.0
30 16:53 NE 9 16.09 Mostly Cloudy BKN085 14.4 -6.1 24% 76.4 1018.7
30 15:53 N 20 16.09 Overcast OVC085 14.4 -4.4 27% 76.43 1019.2
30 14:53 N 19 G 31 16.09 Mostly Cloudy BKN080 13.9 -2.2 33% 76.48 1019.6
30 13:53 N 13 G 30 16.09 Mostly Cloudy SCT065 BKN095 14.4 -1.1 35% 76.5 1020.1
30 12:53 N 19 G 30 16.09 A Few Clouds FEW095 13.3 -1.1 37% 76.53 1020.6
30 11:53 NW 19 16.09 Fair CLR 13.3 -1.1 13.3 3.3 37% 76.56 1020.9
30 10:53 N 17 G 31 16.09 Mostly Cloudy BKN090 12.8 0.6 44% 76.61 1021.6
30 09:53 N 15 16.09 Overcast OVC090 10 1.7 57% 8 76.61 1022.2
30 08:53 N 17 16.09 Overcast OVC085 7.8 2.8 71% 5 76.63 1022.2
30 07:53 N 11 16.09 Overcast OVC080 6.1 2.8 80% 4 76.61 1022.0
30 06:53 N 11 16.09 Mostly Cloudy BKN080 4.4 2.2 86% 2 76.56 1021.5
30 05:53 N 7 16.09 Partly Cloudy SCT080 3.9 1.7 5.6 3.9 86% 2 76.53 1020.9
30 04:53 N 11 16.09 Fair CLR 4.4 2.2 86% 2 76.5 1020.7
30 03:53 N 7 16.09 Fair CLR 5 2.8 86% 4 76.48 1020.5
30 02:53 NW 6 16.09 Fair CLR 5.6 3.3 85% 76.45 1020.0
30 01:53 W 6 16.09 Fair CLR 5 3.9 93% 76.48 1019.9
30 00:53 Calm 16.09 Fair CLR 5 4.4 96% 76.5 1020.0
29 23:53 S 6 16.09 Fair CLR 5 4.4 12.2 4.4 96% 76.5 1019.9
29 22:53 Calm 16.09 Fair CLR 5.6 5 96% 76.5 1019.9
29 21:53 E 6 16.09 Fair CLR 4.4 3.9 97% 76.45 1020.2
29 20:53 W 6 16.09 A Few Clouds FEW120 7.8 6.1 89% 76.4 1019.5
29 19:53 SW 11 16.09 Mostly Cloudy BKN110 8.9 6.1 83% 7 76.38 1019.3
Date Time (mdt) Wind (kph) Vis. (km) Weather Sky Cond. Air Dwpt Max. Min. Relative Humidity Wind Chill (°C) Heat Index (°C) altimeter (cm) sea level (mb) 1 hr 3 hr 6 hr
6 hour
Temperature (ºC) Pressure Precipitation (cm)